Williston, ND

1:45 AM CST on November 17, 2019 (GMT -0600)
Sloulin International

Weather History for KISN - September, 2019

Change the Weather History Date:

Monday, September 16, 2019

  Actual Average Record
Temperature  
Mean Temperature 70 °F 56 °F  
Max Temperature 89 °F 71 °F 96 °F (1998)
Min Temperature 51 °F 42 °F 23 °F (1973)
Degree Days  
Heating Degree Days 0 9  
Month to date heating degree days 68 102  
Since 1 July heating degree days 116 173  
Cooling Degree Days 5 1  
Month to date cooling degree days 16 23  
Year to date cooling degree days 393 452  
Growing Degree Days 20 (Base 50)    
Moisture  
Dew Point 59 °F    
Average Humidity 69    
Maximum Humidity 96    
Minimum Humidity 41    
Precipitation  
Precipitation 0.00 in 0.03 in 0.44 in (1934)
Month to date precipitation 6.13 0.58  
Year to date precipitation 17.75 11.70  
Sea Level Pressure  
Sea Level Pressure 29.65 in    
Wind  
Wind Speed 5 mph (East)    
Max Wind Speed 16 mph    
Max Gust Speed 21 mph    
Visibility 10 miles    
Events      
T = Trace of Precipitation, MM = Missing Value Source: NWS Daily Summary

Daily Weather History Graph

Daily Weather History Graph

Search for Another Location

Airport or City:

Astronomy

Sep. 16, 2019 Rise Set
Actual Time 7:32 AM CDT 8:05 PM CDT
Civil Twilight 7:01 AM CDT 8:36 PM CDT
Nautical Twilight 6:24 AM CDT 9:13 PM CDT
Astronomical Twilight 5:45 AM CDT 9:52 PM CDT
Moon 9:31 PM CDT (9/16) 9:49 AM CDT (9/16)
Length of Visible Light 13h 35m
Length of Day
12h 32m
Waning Gibbous, 94% of the Moon is Illuminated
Sep 16
Waning Gibbous
Sep 21
Last Quarter
Sep 28
New
Oct 5
First Quarter
Oct 13
Full

Hourly Weather History & Observations

Time (CDT) Temp. Heat Index Dew Point Humidity Pressure Visibility Wind Dir Wind Speed Gust Speed Precip Events Conditions
12:52 AM 57.9 °F - 55.0 °F 90% 29.73 in 10.0 mi Calm Calm - N/A   Clear
1:52 AM 57.9 °F - 55.0 °F 90% 29.73 in 10.0 mi North 3.5 mph - N/A   Clear
2:52 AM 57.0 °F - 53.1 °F 87% 29.71 in 10.0 mi NNE 3.5 mph - N/A   Clear
3:52 AM 55.0 °F - 52.0 °F 89% 29.70 in 10.0 mi Calm Calm - N/A   Clear
4:52 AM 55.0 °F - 52.0 °F 89% 29.70 in 10.0 mi Calm Calm - N/A   Clear
5:52 AM 53.1 °F - 51.1 °F 93% 29.70 in 10.0 mi North 4.6 mph - N/A   Clear
6:52 AM 54.0 °F - 52.0 °F 93% 29.70 in 10.0 mi Calm Calm - N/A   Clear
7:52 AM 51.1 °F - 50.0 °F 96% 29.72 in 10.0 mi Calm Calm - N/A   Clear
8:52 AM 61.0 °F - 57.0 °F 87% 29.71 in 10.0 mi NNE 3.5 mph - N/A   Clear
9:52 AM 68.0 °F - 59.0 °F 73% 29.70 in 10.0 mi Calm Calm - N/A   Clear
10:52 AM 73.0 °F - 60.1 °F 64% 29.69 in 10.0 mi Calm Calm - N/A   Clear
11:52 AM 79.0 °F - 60.1 °F 52% 29.68 in 10.0 mi Calm Calm - N/A   Clear
12:52 PM 82.0 °F 83.4 °F 64.0 °F 54% 29.67 in 10.0 mi Variable 3.5 mph - N/A   Clear
1:52 PM 87.1 °F 87.8 °F 63.0 °F 44% 29.64 in 10.0 mi SE 9.2 mph - N/A   Clear
2:52 PM 89.1 °F 90.0 °F 63.0 °F 42% 29.62 in 10.0 mi ESE 11.5 mph - N/A   Clear
3:52 PM 89.1 °F 90.0 °F 63.0 °F 42% 29.61 in 10.0 mi SE 10.4 mph - N/A   Clear
4:52 PM 89.1 °F 90.0 °F 63.0 °F 42% 29.59 in 10.0 mi East 15.0 mph - N/A   Clear
5:52 PM 88.0 °F 89.3 °F 64.0 °F 45% 29.58 in 10.0 mi ESE 12.7 mph - N/A   Clear
6:52 PM 84.0 °F 85.8 °F 64.9 °F 53% 29.58 in 10.0 mi East 11.5 mph - N/A   Clear
7:52 PM 79.0 °F - 64.9 °F 62% 29.59 in 10.0 mi East 5.8 mph - N/A   Clear
8:52 PM 79.0 °F - 64.0 °F 60% 29.57 in 10.0 mi ESE 10.4 mph - N/A   Clear
9:52 PM 77.0 °F - 63.0 °F 62% 29.57 in 10.0 mi ESE 8.1 mph - N/A   Clear
10:52 PM 73.9 °F - 63.0 °F 68% 29.56 in 10.0 mi SE 5.8 mph - N/A   Clear
11:52 PM 73.0 °F - 63.0 °F 71% 29.56 in 10.0 mi SSE 5.8 mph - N/A   Clear